Sauk Centre, MN

5:33 PM CST on December 08, 2019 (GMT -0600)
Sauk Centre

Weather History for KD39 - November, 2019

Change the Weather History Date:

Tuesday, November 19, 2019

  Actual Average (WUND) Record (WUND)
Temperature  
Mean Temperature 36 °F -  
Max Temperature 40 °F - - (-1)
Min Temperature 31 °F - - (-1)
Degree Days  
Heating Degree Days 30    
Moisture  
Dew Point 33 °F    
Average Humidity 92    
Maximum Humidity 100    
Minimum Humidity 81    
Precipitation  
Precipitation 0.00 in - - ()
Sea Level Pressure  
Sea Level Pressure 29.80 in    
Wind  
Wind Speed 5 mph ()    
Max Wind Speed 13 mph    
Max Gust Speed 18 mph    
Visibility 8.8 miles    
Events Fog    
Averages and records for this station are not official NWS values.
T = Trace of Precipitation, MM = Missing Value Source: Averaged Metar Reports

Daily Weather History Graph

Daily Weather History Graph

Search for Another Location

Airport or City:

Astronomy

Nov. 19, 2019 Rise Set
Actual Time 7:24 AM CST 4:45 PM CST
Civil Twilight 6:51 AM CST 5:17 PM CST
Nautical Twilight 6:15 AM CST 5:54 PM CST
Astronomical Twilight 5:40 AM CST 6:29 PM CST
Moon 11:45 PM CST (11/19) 1:33 PM CST (11/19)
Length of Visible Light 10h 25m
Length of Day
9h 20m
Waning Gibbous, 51% of the Moon is Illuminated
Nov 19
Waning Gibbous
Nov 19
Last Quarter
Nov 26
New
Dec 4
First Quarter
Dec 11
Full

Hourly Weather History & Observations

Time (CST) Temp. Windchill Dew Point Humidity Pressure Visibility Wind Dir Wind Speed Gust Speed Precip Events Conditions
12:15 AM 34.2 °F - 34.0 °F 99% 29.65 in 4.0 mi Calm Calm - N/A   Mist
12:20 AM 34.0 °F - 33.8 °F 99% 29.65 in 3.0 mi Calm Calm - N/A   Mist
12:37 AM 33.8 °F - 33.8 °F 100% 29.65 in 3.0 mi Calm Calm - N/A   Mist
12:55 AM 34.0 °F - 34.0 °F 100% 29.65 in 4.0 mi Calm Calm - N/A   Mist
1:16 AM 34.3 °F 30.2 °F 33.8 °F 98% 29.64 in 5.0 mi WSW 4.6 mph - N/A   Mist
1:35 AM 33.8 °F 30.8 °F 33.6 °F 99% 29.64 in 3.0 mi WSW 3.5 mph - N/A   Mist
1:36 AM 33.8 °F 30.8 °F 33.6 °F 99% 29.64 in 3.0 mi WSW 3.5 mph - N/A   Mist
1:58 AM 33.4 °F 28.1 °F 33.3 °F 99% 29.65 in 0.8 mi WSW 5.8 mph - N/A   Mist
2:16 AM 32.7 °F 26.4 °F 32.5 °F 99% 29.65 in 0.2 mi WSW 6.9 mph - N/A Fog Fog
2:35 AM 32.2 °F 26.7 °F 32.2 °F 100% 29.65 in 0.2 mi West 5.8 mph - N/A Fog Fog
2:36 AM 32.2 °F 26.7 °F 32.2 °F 100% 29.65 in 0.2 mi West 5.8 mph - N/A Fog Fog
2:55 AM 31.6 °F 27.0 °F 31.6 °F 100% 29.66 in 0.2 mi West 4.6 mph - N/A Fog Light Freezing Fog
2:56 AM 31.6 °F 27.0 °F 31.6 °F 100% 29.66 in 0.2 mi West 4.6 mph - N/A Fog Light Freezing Fog
3:20 AM 32.0 °F - 32.0 °F 100% 29.66 in 4.0 mi Calm Calm - N/A   Mist
3:37 AM 32.4 °F 29.1 °F 32.4 °F 100% 29.66 in 7.0 mi West 3.5 mph - N/A   Unknown
4:15 AM 33.1 °F 25.5 °F 32.9 °F 99% 29.67 in 10.0 mi West 9.2 mph - N/A   Unknown
4:16 AM 33.1 °F 25.5 °F 32.9 °F 99% 29.67 in 10.0 mi West 9.2 mph - N/A   Unknown
4:35 AM 33.8 °F 27.7 °F 33.3 °F 98% 29.67 in 10.0 mi WNW 6.9 mph - N/A   Unknown
4:36 AM 33.8 °F 27.7 °F 33.3 °F 98% 29.67 in 10.0 mi WNW 6.9 mph - N/A   Unknown
4:59 AM 34.3 °F 29.2 °F 33.3 °F 96% 29.67 in 10.0 mi West 5.8 mph - N/A   Unknown
5:16 AM 34.3 °F 28.4 °F 33.3 °F 96% 29.68 in 10.0 mi WNW 6.9 mph - N/A   Unknown
5:55 AM 34.3 °F 28.4 °F 33.1 °F 95% 29.69 in 10.0 mi West 6.9 mph - N/A   Unknown
6:15 AM 34.2 °F 28.2 °F 33.1 °F 96% 29.69 in 10.0 mi West 6.9 mph - N/A   Unknown
6:19 AM 34.2 °F 28.2 °F 33.1 °F 96% 29.70 in 10.0 mi West 6.9 mph - N/A   Unknown
6:38 AM 34.2 °F 27.5 °F 32.9 °F 95% 29.70 in 10.0 mi West 8.1 mph - N/A   Unknown
6:55 AM 34.0 °F 26.6 °F 32.9 °F 96% 29.71 in 10.0 mi West 9.2 mph - N/A   Unknown
7:15 AM 33.8 °F 26.4 °F 32.7 °F 96% 29.71 in 10.0 mi West 9.2 mph - N/A   Unknown
7:16 AM 33.8 °F 27.0 °F 32.7 °F 96% 29.72 in 10.0 mi West 8.1 mph - N/A   Unknown
7:35 AM 34.0 °F 27.2 °F 32.5 °F 94% 29.72 in 10.0 mi WNW 8.1 mph - N/A   Unknown
7:36 AM 34.0 °F 27.2 °F 32.5 °F 94% 29.72 in 10.0 mi WNW 8.1 mph - N/A   Unknown
7:58 AM 34.0 °F 26.6 °F 32.5 °F 94% 29.74 in 10.0 mi WNW 9.2 mph - N/A   Unknown
8:16 AM 34.3 °F 29.2 °F 32.9 °F 94% 29.74 in 10.0 mi WNW 5.8 mph - N/A   Unknown
8:36 AM 34.7 °F 27.5 °F 32.9 °F 93% 29.75 in 10.0 mi WNW 9.2 mph - N/A   Unknown
8:55 AM 35.2 °F 29.5 °F 33.4 °F 93% 29.75 in 10.0 mi NW 6.9 mph - N/A   Unknown
9:15 AM 36.3 °F 28.4 °F 34.0 °F 91% 29.76 in 10.0 mi NW 11.5 mph - N/A   Unknown
9:19 AM 36.3 °F 30.1 °F 34.0 °F 91% 29.76 in 10.0 mi NW 8.1 mph - N/A   Unknown
9:38 AM 36.5 °F 29.7 °F 34.2 °F 91% 29.77 in 10.0 mi NW 9.2 mph - N/A   Unknown
10:15 AM 37.4 °F 32.8 °F 34.7 °F 90% 29.78 in 10.0 mi NW 5.8 mph - N/A   Unknown
10:16 AM 37.4 °F 32.8 °F 34.7 °F 90% 29.78 in 10.0 mi NW 5.8 mph - N/A   Unknown
10:35 AM 37.9 °F 32.1 °F 35.1 °F 89% 29.79 in 10.0 mi WNW 8.1 mph - N/A   Unknown
10:36 AM 38.1 °F 32.9 °F 35.1 °F 89% 29.79 in 10.0 mi WNW 6.9 mph - N/A   Unknown
10:58 AM 38.8 °F 34.6 °F 35.6 °F 88% 29.79 in 10.0 mi West 5.8 mph - N/A   Unknown
11:16 AM 38.7 °F 32.9 °F 35.6 °F 89% 29.80 in 10.0 mi West 8.1 mph - N/A   Unknown
11:36 AM 39.4 °F 36.1 °F 36.0 °F 88% 29.80 in 10.0 mi WNW 4.6 mph - N/A   Unknown
11:55 AM 40.1 °F 33.6 °F 36.1 °F 86% 29.80 in 10.0 mi WNW 10.4 mph - N/A   Unknown
12:15 PM 38.7 °F 31.4 °F 35.6 °F 89% 29.81 in 10.0 mi West 11.5 mph 17.3 mph N/A   Unknown
12:19 PM 38.5 °F 30.7 °F 35.6 °F 89% 29.81 in 10.0 mi WNW 12.7 mph 18.4 mph N/A   Unknown
12:38 PM 38.3 °F 30.5 °F 35.4 °F 89% 29.82 in 10.0 mi WNW 12.7 mph 17.3 mph N/A   Unknown
12:55 PM 37.8 °F 31.3 °F 34.9 °F 89% 29.82 in 10.0 mi WNW 9.2 mph - N/A   Unknown
1:15 PM 38.5 °F 31.6 °F 34.9 °F 87% 29.82 in 10.0 mi WNW 10.4 mph - N/A   Unknown
1:16 PM 38.5 °F 31.6 °F 34.9 °F 87% 29.82 in 10.0 mi NW 10.4 mph - N/A   Unknown
1:35 PM 38.3 °F 32.5 °F 35.1 °F 88% 29.83 in 10.0 mi WNW 8.1 mph - N/A   Unknown
1:36 PM 38.3 °F 32.5 °F 35.1 °F 88% 29.83 in 10.0 mi WNW 8.1 mph - N/A   Unknown
1:57 PM 38.5 °F 32.1 °F 34.9 °F 87% 29.84 in 10.0 mi West 9.2 mph - N/A   Unknown
2:15 PM 38.5 °F 33.4 °F 34.9 °F 87% 29.84 in 10.0 mi WNW 6.9 mph - N/A   Unknown
2:59 PM 39.2 °F 34.2 °F 33.8 °F 81% 29.84 in 10.0 mi WNW 6.9 mph - N/A   Unknown
3:24 PM 38.5 °F 33.4 °F 33.8 °F 83% 29.85 in 10.0 mi WNW 6.9 mph - N/A   Unknown
3:35 PM 38.3 °F 31.9 °F 33.6 °F 83% 29.85 in 10.0 mi WNW 9.2 mph - N/A   Unknown
3:36 PM 38.3 °F 31.9 °F 33.6 °F 83% 29.85 in 10.0 mi WNW 9.2 mph - N/A   Unknown
3:55 PM 38.3 °F 34.8 °F 33.8 °F 84% 29.85 in 10.0 mi WNW 4.6 mph - N/A   Unknown
3:56 PM 38.1 °F 33.7 °F 33.8 °F 84% 29.85 in 10.0 mi WNW 5.8 mph - N/A   Unknown
4:15 PM 38.1 °F 33.7 °F 33.8 °F 84% 29.86 in 10.0 mi WNW 5.8 mph - N/A   Unknown
4:16 PM 37.9 °F 34.4 °F 33.8 °F 85% 29.86 in 10.0 mi WNW 4.6 mph - N/A   Unknown
4:35 PM 37.6 °F 31.6 °F 34.0 °F 87% 29.86 in 10.0 mi WNW 8.1 mph - N/A   Unknown
4:55 PM 37.4 °F 32.8 °F 32.9 °F 84% 29.86 in 10.0 mi WNW 5.8 mph - N/A   Unknown
5:15 PM 37.0 °F 32.4 °F 33.1 °F 86% 29.87 in 10.0 mi NW 5.8 mph - N/A   Unknown
5:35 PM 36.9 °F 32.2 °F 33.3 °F 87% 29.88 in 10.0 mi NW 5.8 mph - N/A   Unknown
5:55 PM 36.7 °F 30.5 °F 32.7 °F 86% 29.89 in 10.0 mi NW 8.1 mph - N/A   Unknown
6:15 PM 36.5 °F 33.9 °F 32.9 °F 87% 29.90 in 10.0 mi NW 3.5 mph - N/A   Unknown
6:35 PM 36.5 °F 33.9 °F 32.9 °F 87% 29.90 in 10.0 mi NNW 3.5 mph - N/A   Unknown
6:36 PM 36.5 °F 33.9 °F 32.9 °F 87% 29.90 in 10.0 mi NNW 3.5 mph - N/A   Unknown
7:15 PM 35.4 °F 32.6 °F 32.7 °F 90% 29.91 in 10.0 mi SSW 3.5 mph - N/A   Unknown
7:16 PM 35.4 °F 32.6 °F 32.7 °F 90% 29.92 in 10.0 mi SSW 3.5 mph - N/A   Unknown
7:35 PM 35.2 °F - 32.5 °F 90% 29.92 in 10.0 mi Calm Calm - N/A   Unknown
7:55 PM 35.6 °F - 32.4 °F 88% 29.92 in 10.0 mi Calm Calm - N/A   Unknown
7:56 PM 35.4 °F - 32.4 °F 89% 29.92 in 10.0 mi Calm Calm - N/A   Unknown
8:15 PM 34.5 °F - 32.2 °F 91% 29.93 in 10.0 mi Calm Calm - N/A   Unknown
8:35 PM 34.3 °F - 32.5 °F 93% 29.93 in 10.0 mi Calm Calm - N/A   Unknown
8:55 PM 34.7 °F - 32.4 °F 91% 29.95 in 10.0 mi Calm Calm - N/A   Unknown
9:15 PM 34.9 °F - 32.4 °F 91% 29.94 in 10.0 mi Calm Calm - N/A   Unknown
9:16 PM 35.1 °F - 32.5 °F 91% 29.94 in 10.0 mi Calm Calm - N/A   Unknown
9:35 PM 34.2 °F - 32.2 °F 92% 29.94 in 10.0 mi Calm Calm - N/A   Unknown
9:36 PM 34.2 °F - 32.4 °F 93% 29.94 in 10.0 mi Calm Calm - N/A   Unknown
9:55 PM 34.2 °F - 32.4 °F 93% 29.94 in 10.0 mi Calm Calm - N/A   Unknown
10:15 PM 34.2 °F - 32.2 °F 92% 29.94 in 10.0 mi Calm Calm - N/A   Unknown
10:35 PM 34.5 °F 31.6 °F 32.2 °F 91% 29.95 in 10.0 mi SSW 3.5 mph - N/A   Unknown
10:55 PM 34.7 °F - 32.4 °F 91% 29.96 in 10.0 mi Calm Calm - N/A   Unknown
11:15 PM 34.7 °F - 32.2 °F 91% 29.97 in 10.0 mi Calm Calm - N/A   Unknown
11:16 PM 34.7 °F - 32.2 °F 91% 29.97 in 10.0 mi Calm Calm - N/A   Unknown
11:35 PM 33.8 °F - 32.2 °F 94% 29.96 in 10.0 mi Calm Calm - N/A   Unknown
11:55 PM 34.5 °F - 32.0 °F 90% 29.97 in 10.0 mi Calm Calm - N/A   Unknown
11:56 PM 34.3 °F - 32.0 °F 91% 29.97 in 10.0 mi Calm Calm - N/A   Unknown